DW4465 Weather Reports


time (UTC)temp
C
wind
direction
speed
KPH
gust
KPH
rain 1hr
cm
rain 24hr
cm
rain mn
cm
humidity
%
barometer
mb
20260902003056 26 280 3.2 12.9 0.00 0.00 0.00 54 1013.7
20260902001547 26 303 4.8 12.9 0.00 0.00 0.00 54 1013.8
20260902000054 27 279 3.2 16.1 0.00 0.00 0.00 54 1013.8
20260901234750 27 281 4.8 12.9 0.00 0.00 0.00 53 1013.9
20260901233043 28 30 4.8 11.3 0.00 0.00 0.00 52 1013.8
20260901231551 28 246 3.2 12.9 0.00 0.00 0.00 51 1013.7
20260901230123 28 288 1.6 16.1 0.00 0.00 0.00 52 1013.7
20260901224556 28 303 1.6 12.9 0.00 0.00 0.00 51 1013.8
20260901223108 29 0 3.2 8.0 0.00 0.00 0.00 50 1013.9
20260901221549 28 240 8.0 16.1 0.00 0.00 0.00 44 1014.1
20260901220058 28 182 8.0 16.1 0.00 0.00 0.00 42 1014.2
20260901214545 28 203 6.4 14.5 0.00 0.00 0.00 44 1014.3
20260901213053 27 204 3.2 17.7 0.00 0.00 0.00 46 1014.4
20260901211553 27 167 4.8 16.1 0.00 0.00 0.00 47 1014.5
20260901210048 27 211 6.4 16.1 0.00 0.00 0.00 48 1014.6
20260901204555 27 188 6.4 17.7 0.00 0.00 0.00 50 1014.7
20260901203054 27 198 4.8 14.5 0.00 0.00 0.00 52 1014.9
20260901201548 27 185 9.7 17.7 0.00 0.00 0.00 54 1015.1
20260901200056 27 195 4.8 14.5 0.00 0.00 0.00 56 1015.2
20260901194601 26 222 3.2 14.5 0.00 0.00 0.00 58 1015.2
20260901193053 26 197 4.8 12.9 0.00 0.00 0.00 59 1015.4
20260901191549 26 148 4.8 11.3 0.00 0.00 0.00 60 1015.6
20260901184553 26 250 3.2 11.3 0.00 0.00 0.00 62 1015.8
20260901183050 26 147 6.4 12.9 0.00 0.00 0.00 62 1015.7
20260901181554 26 220 3.2 11.3 0.00 0.00 0.00 63 1015.7
20260901180043 25 175 1.6 9.7 0.00 0.00 0.00 62 1015.7
20260901174551 24 0 1.6 6.4 0.00 0.00 0.00 65 1015.8
20260901173104 24 178 3.2 8.0 0.00 0.00 0.00 67 1015.7
20260901171554 23 0 0.0 9.7 0.00 0.00 0.00 70 1015.6
20260901170050 22 187 0.0 4.8 0.00 0.00 0.00 74 1015.6
20260901164558 22 313 1.6 4.8 0.00 0.00 0.00 76 1015.6
20260901163044 21 234 0.0 4.8 0.00 0.00 0.00 81 1015.5
20260901161551 20 0 1.6 6.4 0.00 0.00 0.00 83 1015.6
20260901160050 20 183 0.0 4.8 0.00 0.00 0.00 85 1015.5
20260901154546 19 182 1.6 8.0 0.00 0.00 0.00 86 1015.6
20260901153058 19 0 0.0 6.4 0.00 0.00 0.00 87 1015.6
20260901151555 18 0 0.0 1.6 0.00 0.00 0.00 88 1015.4
20260901150046 18 121 0.0 3.2 0.00 0.00 0.00 88 1015.3
20260901144559 18 0 0.0 4.8 0.00 0.00 0.00 88 1015.0
20260901143046 18 128 0.0 3.2 0.00 0.00 0.00 88 1015.1
20260901141556 17 0 0.0 1.6 0.00 0.00 0.00 88 1015.1
20260901140048 17 0 0.0 1.6 0.00 0.00 0.00 88 1015.0
20260901134547 17 0 0.0 3.2 0.00 0.00 0.00 88 1014.7
20260901133057 17 0 0.0 0.0 0.00 0.00 0.00 88 1014.6
20260901131549 17 0 0.0 0.0 0.00 0.00 0.00 88 1014.5
20260901130048 16 0 0.0 0.0 0.00 0.00 0.00 87 1014.5
20260901124553 16 0 0.0 0.0 0.00 0.00 0.00 87 1014.4
20260901123044 16 0 0.0 0.0 0.00 0.00 0.00 87 1014.4
20260901121558 16 0 0.0 0.0 0.00 0.00 0.00 87 1014.3
20260901120044 16 0 0.0 0.0 0.00 0.00 0.00 87 1014.1
20260901114552 16 0 0.0 0.0 0.00 0.00 0.00 86 1014.0
20260901113050 16 0 0.0 0.0 0.00 0.00 0.00 87 1014.1
20260901111552 16 0 0.0 0.0 0.00 0.00 0.00 86 1014.2
20260901110048 16 0 0.0 0.0 0.00 0.00 0.00 86 1014.3
20260901104553 17 0 0.0 0.0 0.00 0.00 0.00 86 1014.3
20260901103052 17 0 0.0 0.0 0.00 0.00 0.00 86 1014.3
20260901101552 17 0 0.0 0.0 0.00 0.00 0.00 86 1014.4
20260901100047 17 0 0.0 0.0 0.00 0.00 0.00 86 1014.3
20260901094559 17 0 0.0 1.6 0.00 0.00 0.00 86 1014.4
20260901093124 17 0 0.0 1.6 0.00 0.00 0.00 86 1014.5
20260901091600 18 0 0.0 1.6 0.00 0.00 0.00 85 1014.3
20260901090056 18 0 0.0 1.6 0.00 0.00 0.00 85 1014.3
20260901084557 18 0 0.0 1.6 0.00 0.00 0.00 85 1014.3
20260901083049 18 0 0.0 0.0 0.00 0.00 0.00 84 1014.4
20260901081546 18 0 0.0 0.0 0.00 0.00 0.00 84 1014.6
20260901080049 18 0 0.0 0.0 0.00 0.00 0.00 84 1014.5
20260901074545 18 0 0.0 0.0 0.00 0.00 0.00 84 1014.7
20260901073050 18 0 0.0 1.6 0.00 0.00 0.00 83 1014.7
20260901071548 18 0 0.0 1.6 0.00 0.00 0.00 83 1014.6
20260901070055 19 0 0.0 0.0 0.00 0.00 0.00 82 1014.7
20260901064554 19 0 0.0 0.0 0.00 0.00 0.00 82 1014.6
20260901063048 19 0 0.0 0.0 0.00 0.00 0.00 82 1014.3
20260901061548 20 0 0.0 1.6 0.00 0.00 0.00 82 1014.2
20260901060058 20 0 0.0 1.6 0.00 0.00 0.00 81 1014.2
20260901054553 20 0 0.0 3.2 0.00 0.00 0.00 81 1014.2
20260901053105 20 0 0.0 1.6 0.00 0.00 0.00 80 1014.1
20260901051544 20 236 0.0 1.6 0.00 0.00 0.00 79 1014.0
20260901050052 20 0 0.0 1.6 0.00 0.00 0.00 79 1013.8
20260901044552 20 0 0.0 3.2 0.00 0.00 0.00 78 1013.8
20260901043115 20 265 0.0 3.2 0.00 0.00 0.00 78 1013.6
20260901041557 21 243 0.0 4.8 0.00 0.00 0.00 77 1013.6
20260901040053 21 0 0.0 6.4 0.00 0.00 0.00 77 1013.3
20260901034601 21 297 0.0 4.8 0.00 0.00 0.00 76 1013.1
20260901033059 21 0 0.0 6.4 0.00 0.00 0.00 75 1013.0
20260901031545 21 0 0.0 6.4 0.00 0.00 0.00 74 1012.8
20260901030050 21 0 1.6 6.4 0.00 0.00 0.00 74 1012.5
20260901024554 22 279 1.6 8.0 0.00 0.00 0.00 72 1012.5
20260901023048 22 17 3.2 9.7 0.00 0.00 0.00 71 1012.2
20260901021545 23 302 4.8 9.7 0.00 0.00 0.00 69 1012.3
20260901020043 23 313 3.2 11.3 0.00 0.00 0.00 67 1012.3
20260901014550 23 0 0.0 6.4 0.00 0.00 0.00 65 1012.2
20260901013047 24 5 4.8 14.5 0.00 0.00 0.00 63 1012.3
20260901011554 25 324 3.2 12.9 0.00 0.00 0.00 62 1012.1
20260901010100 26 329 3.2 11.3 0.00 0.00 0.00 60 1012.2
20260901004552 27 287 3.2 11.3 0.00 0.00 0.00 58 1012.2